Regional Weather Roundup
Issued by NWS

Home | Current Version | Previous Version | Graphics & Text | Print | Product List | Glossary On
Versions: 1 2 3 4 5 6 7 8 9 10 11 12 13 14 15 16 17 18 19 20 21 22 23 24 25 26 27 28 29 30 31 32 33 34 35 36 37 38 39 40 41 42 43 44 45 46 47 48 49 50
000
ASUS43 KFSD 292102
RWRSD

WEATHER ROUNDUP FOR SOUTH DAKOTA
NATIONAL WEATHER SERVICE SIOUX FALLS SD
400 PM CDT WED MAR 29 2017

NOTE: "FAIR" INDICATES FEW OR NO CLOUDS BELOW 12,000 FEET WITH NO
SIGNIFICANT WEATHER AND/OR OBSTRUCTIONS TO VISIBILITY.


SDZ001>005-009-010-012>017-292200-
NORTHWEST AND NORTH CENTRAL SOUTH DAKOTA

CITY           SKY/WX    TMP DP  RH WIND       PRES   REMARKS
BUFFALO          N/A     63  27  25 NW13      29.90F
FAITH            N/A     54  41  61 MISG      30.01F
MOBRIDGE       MOSUNNY   64  30  27 S12       29.98F
$$

SDZ012>016-024>037-041>051-057-063-072>074-292200-
SOUTHWEST AND SOUTH CENTRAL SOUTH DAKOTA

CITY           SKY/WX    TMP DP  RH WIND       PRES   REMARKS
RAPID CTY ARPT MOSUNNY   55  38  52 VRB7      30.00F
PIERRE         PTSUNNY   61  33  35 SE10      30.00F
CUSTER         CLOUDY    46  38  73 SE5       30.00F
ELLSWORTH AFB  MOSUNNY   55  39  55 VRB6      30.00F
PHILIP         CLOUDY    54  39  57 CALM      30.01F
PINE RIDGE     CLOUDY    52  40  63 E6        30.00F
SPEARFISH      FAIR      54  30  40 NE8G14    29.99F
WINNER         FAIR      54  39  57 E21G26    30.01F
$$

SDZ004>011-016>023-039-040-292200-
NORTHEAST SOUTH DAKOTA

CITY           SKY/WX    TMP DP  RH WIND       PRES   REMARKS
ABERDEEN       CLOUDY    60  31  33 SE12      30.04F
WATERTOWN      CLOUDY    54  33  45 E9        30.07F
BROOKINGS      CLOUDY    49  37  63 E17G24    30.07F
SISSETON         N/A     58  37  45 S15       30.07F
$$

SDZ017-020-022-023-036>040-048>070-292200-
SOUTHEAST SOUTH DAKOTA

CITY           SKY/WX    TMP DP  RH WIND       PRES   REMARKS
SIOUX FALLS    LGT RAIN  47  39  74 E24G33    30.05F
HURON          CLOUDY    55  36  48 SE13      30.05F
CHAMBERLAIN    CLOUDY    54  38  55 E12G17    30.04F
MITCHELL       CLOUDY    53  36  52 E20       30.07F
YANKTON        CLOUDY    43  39  87 E20G30    30.01F
$$

ABBREVIATIONS USED IN REMARKS
   TC - TEMPERATURE IN CELSIUS
  WCI - WIND CHILL INDEX
   HX - HEAT INDEX
  VSB - VISIBILITY




USA.gov is the U.S. government's official web portal to all federal, state and local government web resources and services.